• Processing (Info)

  • MPEC 2015-F130: 2015 FN118

    The following Minor Planet Electronic Circular may be linked-to from your own Web pages, but must not otherwise be redistributed electronically.

    A form allowing access to any MPEC is at the bottom of this page.


    Read MPEC 2015-F129 Read MPEC 2015-F131


    M.P.E.C. 2015-F130                               Issued 2015 Mar. 27, 14:26 UT
    
         The Minor Planet Electronic Circulars contain information on unusual
             minor planets and routine data on comets.  They are published
       on behalf of Commission 20 of the International Astronomical Union by the
              Minor Planet Center, Smithsonian Astrophysical Observatory,
                              Cambridge, MA 02138, U.S.A.
    
                 Prepared using the Tamkin Foundation Computer Network
    
                                  MPC@CFA.HARVARD.EDU
                URL https://www.minorplanetcenter.net/    ISSN 1523-6714
    
                                      2015 FN118
    
    Observations:
         K15FB8N* C2015 03 17.55671 15 05 49.453-15 25 58.24         21.5 wLEF130F51
         K15FB8N  C2015 03 17.56976 15 05 48.434-15 25 29.93         21.6 wLEF130F51
         K15FB8N  C2015 03 17.58278 15 05 47.416-15 25 00.69         21.5 wLEF130F51
         K15FB8N  C2015 03 17.59582 15 05 46.393-15 24 32.10         21.7 wLEF130F51
         K15FB8N  C2015 03 18.54260 15 04 36.492-14 49 31.00         21.6 wLEF130F51
         K15FB8N  C2015 03 18.55532 15 04 35.460-14 49 02.58         21.6 wLEF130F51
         K15FB8N _C2015 03 18.64072015 04 28.523-14 45 51.90         21.3 RtEF130568
         K15FB8N _C2015 03 18.64208415 04 28.414-14 45 48.91         21.2 RtEF130568
         K15FB8N _C2015 03 18.64341515 04 28.307-14 45 45.88         21.2 RtEF130568
         K15FB8N KC2015 03 24.44125 14 56 16.70 -11 05 22.5          21.0 RoEF130291
         K15FB8N KC2015 03 24.44351 14 56 16.47 -11 05 17.1          20.9 RoEF130291
         K15FB8N KC2015 03 24.44578 14 56 16.24 -11 05 11.9          20.9 RoEF130291
         K15FB8N KC2015 03 27.32790 14 51 38.32 -09 13 18.7          21.7 RoEF130291
         K15FB8N KC2015 03 27.33104 14 51 37.97 -09 13 11.2          21.0 RoEF130291
         K15FB8N KC2015 03 27.33421 14 51 37.67 -09 13 04.5          21.1 RoEF130291
    
    Observer details:
    291 LPL/Spacewatch II.  Observers R. A. Mastaler, A. F. Tubbiolo.  1.8-m f/2.7
        reflector + CCD.
    568 Mauna Kea.  Observers R. J. Wainscoat, D. Woodworth.  Measurers M. Micheli,
        R. J. Wainscoat.  3.6-m Canada-France-Hawaii Telescope + CCD.
    F51 Pan-STARRS 1, Haleakala.  Observers B. Gibson, T. Goggia, N. Primak,
        A. Schultz, M. Willman.  Measurers K. Chambers, S. Chastel, L. Denneau,
        H. Flewelling, M. Huber, E. Magnier, E. Schunova, R. Wainscoat, C. Waters,
        R. Weryk, P. Veres.  1.8-m Ritchey-Chretien + CCD.
    
    Orbital elements:
    2015 FN118                                          PHA, Earth MOID = 0.0273 AU
    Epoch 2015 June 27.0 TT = JDT 2457200.5                 MPC
    M  96.58692              (2000.0)            P               Q
    n   0.46456159     Peri.  247.53754     +0.15441129     -0.98050319
    a   1.6511018      Node   195.17963     +0.98721685     +0.14819856
    e   0.5440996      Incl.   27.65491     -0.03949739     -0.12903752
    P   2.12           H   20.2           G   0.15           U   6
    Residuals in seconds of arc
    150317 F51  0.1+  0.2+    150318 F51  0.1-  0.1+    150324 291  0.0   0.1+
    150317 F51  0.1+  0.3-    150318 568  0.0   0.1-    150324 291  0.1-  0.0
    150317 F51  0.0   0.2+    150318 568  0.0   0.2-    150327 291  0.1+  0.1+
    150317 F51  0.1-  0.1-    150318 568  0.0   0.1-    150327 291  0.3-  0.3+
    150318 F51  0.0   0.0     150324 291  0.2+  0.1-    150327 291  0.2+  0.4-
    
    Ephemeris:
    2015 FN118               a,e,i = 1.65, 0.54, 28                  q = 0.7527
    Date    TT    R. A. (2000) Decl.     Delta      r     Elong.  Phase     V
    2015 02 25    15 18 00.5 -26 26 22   0.7094  1.3293   101.7    46.8    21.8
    ...
    2015 03 12    15 11 38.5 -18 44 02   0.6722  1.4534   120.3    36.2    21.6
    ...
    2015 03 20    15 02 42.7 -13 54 55   0.6610  1.5170   131.6    29.4    21.5
    ...
    2015 03 26    14 53 48.7 -10 04 50   0.6602  1.5635   140.4    24.0    21.4
    2015 03 27    14 52 10.6 -09 25 58   0.6608  1.5712   141.8    23.1    21.4
    2015 03 28    14 50 30.3 -08 47 03   0.6617  1.5788   143.3    22.2    21.4
    ...
    2015 04 03    14 39 50.4 -04 55 17   0.6724  1.6238   151.8    16.9    21.3
    ...
    2015 04 11    14 24 41.6 -00 04 05   0.7024  1.6820   161.1    11.1    21.3
    ...
    2015 04 26    13 58 00.1 +07 03 56   0.8084  1.7855   159.4    11.4    21.7
    
    A. U. Tomatic                (C) Copyright 2015 MPC           M.P.E.C. 2015-F130
    

    Read MPEC 2015-F129 Read MPEC 2015-F131


    MPEC number:

    Enter an MPEC number in one of the following forms:

    • 1997-B01 (the full form)
    • J97B01 (the packed version of the full form)
    • B01 (the abbreviated form)